Location: St. Andrews
(45.0670°N, 67.0330°W)
Time: 11:07:39
(UTC-04:00)

Amateur Radio Satellites - All Passes

Search period start: 07 February 2016 10:37
Search period end: 08 February 2016 10:37
Location: St. Andrews, 45.0670°N, 67.0330°W

Satellite Date Start Highest point End Downlink Frequencies (MHz)
Time Altitude Azimuth
DX 1 07 Feb 10:42:21 10:43:55 12° 89° (E) 10:45:28 434.975-435.025
AIST 1 07 Feb 10:45:05 10:48:57 31° 90° (E) 10:52:50
50 SAT 07 Feb 10:47:06 10:49:05 14° 91° (E) 10:51:03 437.505
Cosmos 2499 07 Feb 11:00:16 11:08:57 80° 279° (W) 11:17:56 435.465 / 435.565
COMPASS 1 07 Feb 11:00:50 11:01:04 10° 301° (WNW) 11:01:18 437.405
ANTELSAT 07 Feb 11:14:58 11:17:52 17° 268° (W) 11:20:46 437.575/2403.000
POLYITAN 1 07 Feb 11:16:57 11:21:07 57° 259° (W) 11:25:19 437.675
QB50P2 07 Feb 11:17:46 11:21:56 55° 260° (W) 11:26:07 145.880/145.840
ZACube-1 07 Feb 11:22:38 11:25:34 19° 295° (WNW) 11:28:31 437.345
TIGRISAT 07 Feb 11:23:21 11:25:54 15° 269° (W) 11:28:25 435.000
VELOX 1 07 Feb 11:24:14 11:28:09 30° 96° (E) 11:32:02 145.980
GONETS M04 07 Feb 11:30:32 11:37:47 29° 296° (WNW) 11:45:07
DELFI C3 07 Feb 11:32:34 11:35:25 19° 295° (WNW) 11:38:15 145.870
FUNcube-1 07 Feb 11:33:40 11:36:09 16° 297° (WNW) 11:38:39 145.935
BUGSAT 1 07 Feb 11:36:41 11:40:54 71° 258° (WSW) 11:45:06 437.445
AISAT 07 Feb 11:40:07 11:44:23 46° 99° (E) 11:48:37 437.250
HO-68 07 Feb 11:45:38 11:47:59 12° 316° (NW) 11:50:20 435.675
POPSAT HIP 1 07 Feb 11:49:01 11:52:40 27° 265° (W) 11:56:19 437.405
ESTCUBE 1 07 Feb 11:49:50 11:54:24 64° 101° (ESE) 11:58:54 437.505/2401.250
PCSat 07 Feb 11:50:47 11:56:08 63° 117° (ESE) 12:01:30 145.827
RS-15 07 Feb 11:54:43 12:05:12 51° 111° (ESE) 12:16:14 29.354- 29.394
JAS-2 07 Feb 11:55:51 12:02:00 28° 61° (ENE) 12:07:43 435.910
NANOSAT C BR1 07 Feb 11:55:53 11:59:19 24° 266° (W) 12:02:46 145.865
DUCHIFAT 1 07 Feb 11:58:43 12:02:07 23° 266° (W) 12:05:31 145.980
QB50P1 07 Feb 12:02:34 12:05:44 20° 267° (W) 12:08:54 145.935-145.965
HUMSAT D 07 Feb 12:07:06 12:10:06 20° 295° (WNW) 12:13:07 437.325/437.525
AO-85 07 Feb 12:07:20 12:12:43 72° 307° (NW) 12:18:15 145.980
CUBEBUG 1 07 Feb 12:08:30 12:12:55 76° 102° (ESE) 12:17:16 437.445
UKube-1 07 Feb 12:09:32 12:13:54 83° 104° (ESE) 12:18:13 .
DX 1 07 Feb 12:16:15 12:20:38 72° 285° (WNW) 12:24:56 434.975-435.025
SO-50 07 Feb 12:18:31 12:20:37 12° 25° (NNE) 12:22:41 436.795
50 SAT 07 Feb 12:19:44 12:23:23 47° 288° (WNW) 12:27:03 437.505
AIST 1 07 Feb 12:22:52 12:26:33 26° 288° (WNW) 12:30:17
YUBILEINY 07 Feb 12:23:15 12:23:41 10° 46° (NE) 12:24:08 435.215
SPROUT 07 Feb 12:24:05 12:28:07 40° 98° (E) 12:32:07 437.525
Oscar 19 07 Feb 12:37:46 12:42:50 56° 71° (ENE) 12:47:55 437.125/150
TISAT 1 07 Feb 12:44:50 12:48:20 25° 95° (E) 12:51:47 437.305
Gurwin Techsat 1B 07 Feb 12:45:54 12:50:20 28° 64° (ENE) 12:54:47 435.225
CUSAT 1 07 Feb 12:46:08 12:52:21 42° 69° (ENE) 12:57:07 437.405
DANDE 07 Feb 12:54:07 13:00:59 35° 64° (ENE) 13:06:33 436.750
Cosmos 2499 07 Feb 12:57:37 13:03:40 20° 302° (WNW) 13:09:48 435.465 / 435.565
VELOX 1 07 Feb 13:00:45 13:04:34 29° 293° (WNW) 13:08:21 145.980
AISAT 07 Feb 13:17:22 13:20:34 20° 297° (WNW) 13:23:45 437.250
ESTCUBE 1 07 Feb 13:27:58 13:30:42 16° 299° (WNW) 13:33:26 437.505/2401.250
ITUPSAT 1 07 Feb 13:32:43 13:35:45 16° 91° (E) 13:38:45 437.325
PCSat 07 Feb 13:35:27 13:39:57 26° 317° (NW) 13:44:29 145.827
AO-7 07 Feb 13:36:10 13:42:55 29° 52° (NE) 13:49:41 29.400- 29.500
JAS-2 07 Feb 13:38:47 13:46:31 71° 258° (WSW) 13:53:39 435.910
ITAMSAT 1 07 Feb 13:40:19 13:45:12 44° 69° (ENE) 13:50:09 435.822/435.867
BEESAT 07 Feb 13:42:42 13:46:18 21° 93° (E) 13:49:53 436.000
CUBEBUG 1 07 Feb 13:46:37 13:48:37 13° 300° (WNW) 13:50:35 437.445
UKube-1 07 Feb 13:47:45 13:49:19 12° 302° (WNW) 13:50:52 .
AO-85 07 Feb 13:50:21 13:54:14 19° 329° (NNW) 13:58:07 145.980
SO-50 07 Feb 13:57:43 14:02:24 44° 47° (NE) 14:06:54 436.795
SPROUT 07 Feb 14:00:39 14:03:51 21° 295° (WNW) 14:07:02 437.525
RS-15 07 Feb 14:06:29 14:17:32 58° 317° (NW) 14:29:16 29.354- 29.394
YUBILEINY 07 Feb 14:14:51 14:23:20 47° 72° (ENE) 14:31:43 435.215
Oscar 19 07 Feb 14:18:45 14:22:31 20° 268° (W) 14:26:17 437.125/150
TISAT 1 07 Feb 14:20:20 14:24:01 30° 292° (WNW) 14:27:40 437.305
Cosmos 2491 07 Feb 14:23:46 14:30:12 24° 79° (E) 14:36:38 435.465 / 435.565
Gurwin Techsat 1B 07 Feb 14:25:02 14:30:04 44° 261° (W) 14:35:10 435.225
CUSAT 1 07 Feb 14:28:59 14:34:16 28° 276° (W) 14:38:31 437.405
SWISSCUBE 07 Feb 14:33:52 14:38:40 70° 102° (ESE) 14:43:27 437.505
DANDE 07 Feb 14:37:06 14:44:16 48° 270° (W) 14:49:53 436.750
M-CUBED/EXP-1 PRIME 07 Feb 14:40:15 14:43:24 27° 64° (ENE) 14:46:24 437.505
AUBIESAT-1 07 Feb 14:52:31 14:55:46 31° 65° (ENE) 14:58:52 437.475
HORYU 2 07 Feb 14:59:29 15:02:52 22° 64° (ENE) 15:06:15 437.375
ITUPSAT 1 07 Feb 15:09:14 15:14:00 61° 288° (WNW) 15:18:45 437.325
BEESAT 07 Feb 15:19:44 15:24:21 48° 290° (WNW) 15:28:56 436.000
ITAMSAT 1 07 Feb 15:20:37 15:24:52 26° 266° (W) 15:29:11 435.822/435.867
AO-7 07 Feb 15:26:32 15:34:54 79° 252° (WSW) 15:43:21 29.400- 29.500
JAS-2 07 Feb 15:28:50 15:32:30 14° 275° (W) 15:36:03 435.910
SO-50 07 Feb 15:38:38 15:42:41 27° 246° (WSW) 15:46:37 436.795
Cosmos 2504 07 Feb 15:41:12 15:49:10 37° 68° (ENE) 15:56:40 435.465 / 435.565
MOZHAYETS 4 07 Feb 15:41:27 15:44:51 20° 92° (E) 15:48:15
STARS 07 Feb 15:58:21 16:02:26 37° 98° (E) 16:06:29 437.465
KKS-1 07 Feb 16:07:43 16:12:11 86° 104° (ESE) 16:16:36 437.445
YUBILEINY 07 Feb 16:11:55 16:20:04 43° 273° (W) 16:28:10 435.215
SWISSCUBE 07 Feb 16:13:01 16:15:56 16° 300° (WNW) 16:18:50 437.505
M-CUBED/EXP-1 PRIME 07 Feb 16:15:09 16:18:04 21° 258° (WSW) 16:20:50 437.505
Cosmos 2491 07 Feb 16:17:19 16:26:03 79° 280° (W) 16:34:49 435.465 / 435.565
RS-15 07 Feb 16:23:24 16:33:16 30° 349° (N) 16:43:33 29.354- 29.394
AUBIESAT-1 07 Feb 16:27:45 16:30:25 19° 259° (W) 16:32:59 437.475
HORYU 2 07 Feb 16:35:02 16:39:12 41° 261° (W) 16:43:24 437.375
CUTE-I 07 Feb 16:38:16 16:42:15 22° 61° (ENE) 16:46:14 437.470
BRITE-PL 07 Feb 16:45:11 16:48:13 15° 58° (ENE) 16:51:14 437.365/2234.400
O/OREOS (USA 219) 07 Feb 16:50:30 16:52:20 12° 45° (NE) 16:54:10 437.305
Cubesat XI-IV 07 Feb 16:50:34 16:54:58 27° 63° (ENE) 16:59:24 437.490
MOZHAYETS 4 07 Feb 17:17:49 17:22:16 47° 289° (WNW) 17:26:42
AO-85 07 Feb 17:18:24 17:20:08 11° 18° (NNE) 17:21:51 145.980
AO-7 07 Feb 17:23:59 17:28:58 17° 272° (W) 17:33:59 29.400- 29.500
ISS 07 Feb 17:30:12 17:33:24 57° 146° (SE) 17:36:35 145.825
Cosmos 2504 07 Feb 17:34:29 17:42:55 55° 271° (W) 17:50:49 435.465 / 435.565
STARS 07 Feb 17:35:10 17:38:37 23° 295° (WNW) 17:42:03 437.465
KKS-1 07 Feb 17:46:29 17:48:05 12° 302° (WNW) 17:49:41 437.445
CUBESAT XI-V 07 Feb 17:50:52 17:55:24 44° 98° (E) 17:59:52 437.345
LilacSat-2 07 Feb 17:56:31 18:00:20 83° 76° (ENE) 18:04:10 437.200
DOVE 4 07 Feb 17:59:23 18:02:38 17° 62° (ENE) 18:05:49 437.250
GOMX 1 07 Feb 18:02:51 18:07:41 34° 68° (ENE) 18:12:20 467.674
BEESAT 3 07 Feb 18:11:39 18:15:32 54° 121° (ESE) 18:19:28 437.485
CUTE-I 07 Feb 18:16:38 18:21:52 59° 259° (W) 18:27:10 437.470
Cosmos 2491 07 Feb 18:18:52 18:24:30 18° 303° (WNW) 18:30:13 435.465 / 435.565
BRITE-PL 07 Feb 18:20:11 18:25:54 83° 76° (ENE) 18:31:31 437.365/2234.400
O/OREOS (USA 219) 07 Feb 18:27:56 18:32:32 79° 65° (ENE) 18:37:08 437.305
Cubesat XI-IV 07 Feb 18:29:44 18:34:49 45° 261° (W) 18:39:57 437.490
BEESAT 2 07 Feb 18:30:59 18:34:55 57° 121° (ESE) 18:38:53 435.950
HO-68 07 Feb 18:38:27 18:44:42 34° 59° (ENE) 18:50:59 435.675
CUTE 1.7 + AOD 2 07 Feb 18:39:28 18:41:46 14° 62° (ENE) 18:44:03 437.475
RS-15 07 Feb 18:39:38 18:50:21 36° 24° (NNE) 19:01:19 29.354- 29.394
SEEDS 07 Feb 18:50:36 18:52:51 14° 62° (ENE) 18:55:07 437.485
PCSat 07 Feb 18:54:11 18:57:48 18° 36° (NE) 19:01:24 145.827
AO-85 07 Feb 18:57:40 19:02:24 32° 41° (NE) 19:06:49 145.980
STRAND 1 07 Feb 19:04:09 19:08:46 32° 96° (E) 19:13:22 437.568
ISS 07 Feb 19:07:00 19:10:00 33° 344° (NNW) 19:13:00 145.825
AAUSAT CUBESAT 2 07 Feb 19:12:21 19:14:43 15° 62° (ENE) 19:17:05 437.432
CINEMA 3 07 Feb 19:12:28 19:16:25 28° 68° (ENE) 19:20:14 145.822/145.860
CANX-2 07 Feb 19:22:03 19:26:00 42° 71° (ENE) 19:30:01 2200.000
CUBESAT XI-V 07 Feb 19:28:51 19:32:31 23° 296° (WNW) 19:36:10 437.345
DOVE 4 07 Feb 19:34:45 19:39:54 68° 259° (W) 19:44:47 437.250
CUBEBUG 2 07 Feb 19:38:07 19:41:09 19° 65° (ENE) 19:44:08 437.445
GONETS M04 07 Feb 19:39:25 19:47:31 39° 69° (ENE) 19:55:35
GOMX 1 07 Feb 19:40:42 19:45:41 36° 264° (W) 19:50:31 467.674
UWE-3 07 Feb 19:44:53 19:47:31 16° 63° (ENE) 19:50:08 435.000/436.395/437.385
BEESAT 3 07 Feb 19:50:36 19:53:37 20° 320° (NW) 19:56:38 437.485
Oscar 11 07 Feb 19:55:39 19:58:44 19° 64° (ENE) 20:01:48 145.826/435.025
BRITE-PL 07 Feb 20:01:39 20:04:57 16° 272° (W) 20:08:14 437.365/2234.400
AIST 2 07 Feb 20:05:35 20:09:41 59° 121° (ESE) 20:13:48 435.215
O/OREOS (USA 219) 07 Feb 20:09:40 20:11:16 12° 263° (W) 20:12:51 437.305
BEESAT 2 07 Feb 20:10:07 20:13:09 20° 320° (NW) 20:16:11 435.950
CUTE 1.7 + AOD 2 07 Feb 20:12:58 20:17:08 61° 260° (W) 20:21:20 437.475
COMPASS 1 07 Feb 20:14:25 20:18:33 79° 74° (ENE) 20:22:44 437.405
SEEDS 07 Feb 20:23:58 20:28:06 60° 261° (W) 20:32:16 437.485
HO-68 07 Feb 20:25:06 20:32:06 55° 259° (WSW) 20:39:10 435.675
PRISM 07 Feb 20:35:36 20:39:50 84° 105° (ESE) 20:44:00 437.425
PCSat 07 Feb 20:36:40 20:42:08 76° 57° (ENE) 20:47:34 145.827
AO-85 07 Feb 20:38:11 20:43:08 47° 243° (WSW) 20:47:41 145.980
ZACube-1 07 Feb 20:43:14 20:47:15 44° 71° (ENE) 20:51:14 437.345
STRAND 1 07 Feb 20:43:17 20:47:57 35° 294° (WNW) 20:52:37 437.568
ISS 07 Feb 20:44:17 20:47:03 25° 4° (N) 20:49:49 145.825
DELFI C3 07 Feb 20:45:14 20:48:46 31° 69° (ENE) 20:52:20 145.870
AAUSAT CUBESAT 2 07 Feb 20:45:43 20:49:47 56° 260° (W) 20:53:53 437.432
CINEMA 3 07 Feb 20:49:17 20:53:29 32° 263° (W) 20:57:33 145.822/145.860
Cosmos 2499 07 Feb 20:50:01 20:58:10 45° 71° (ENE) 21:05:43 435.465 / 435.565
AIST 1 07 Feb 20:52:24 20:53:01 10° 63° (ENE) 20:53:38
RS-15 07 Feb 20:52:52 21:05:03 79° 52° (NE) 21:17:26 29.354- 29.394
FUNcube-1 07 Feb 20:53:33 20:57:40 54° 73° (ENE) 21:01:44 145.935
CANX-2 07 Feb 20:59:08 21:02:05 18° 268° (W) 21:05:03 2200.000
CUBEBUG 2 07 Feb 21:13:19 21:17:30 45° 261° (W) 21:21:36 437.445
UWE-3 07 Feb 21:19:25 21:23:38 53° 260° (W) 21:27:46 435.000/436.395/437.385
HUMSAT D 07 Feb 21:24:07 21:27:52 36° 70° (ENE) 21:31:38 437.325/437.525
Oscar 11 07 Feb 21:30:26 21:34:33 44° 261° (W) 21:38:42 145.826/435.025
UKube-1 07 Feb 21:33:34 21:34:43 11° 58° (ENE) 21:35:51 .
GONETS M04 07 Feb 21:36:11 21:44:36 52° 271° (W) 21:53:00
DX 1 07 Feb 21:39:35 21:42:03 15° 60° (ENE) 21:44:32 434.975-435.025
AIST 2 07 Feb 21:45:23 21:48:33 20° 321° (NW) 21:51:43 435.215
PRISM 07 Feb 22:13:21 22:14:31 11° 301° (WNW) 22:15:41 437.425
UNISAT 6 07 Feb 22:17:56 22:21:37 27° 95° (E) 22:25:22 437.425
DELFI C3 07 Feb 22:20:38 22:23:45 22° 266° (W) 22:26:54 145.870
ISS 07 Feb 22:20:46 22:23:59 53° 24° (NNE) 22:27:10 145.825
ZACube-1 07 Feb 22:20:54 22:23:46 18° 268° (W) 22:26:37 437.345
PCSat 07 Feb 22:21:30 22:24:53 17° 255° (WSW) 22:28:15 145.827
VELOX 1 07 Feb 22:23:20 22:27:23 35° 68° (ENE) 22:31:28 145.980
AIST 1 07 Feb 22:26:54 22:31:18 85° 260° (W) 22:35:37
FUNcube-1 07 Feb 22:31:58 22:34:16 14° 270° (W) 22:36:32 145.935
AISAT 07 Feb 22:39:11 22:43:33 53° 72° (ENE) 22:47:56 437.250
Cosmos 2499 07 Feb 22:43:24 22:51:14 43° 274° (W) 22:58:32 435.465 / 435.565
ESTCUBE 1 07 Feb 22:51:02 22:55:33 74° 74° (ENE) 23:00:06 437.505/2401.250
HUMSAT D 07 Feb 23:00:37 23:03:39 20° 267° (W) 23:06:42 437.325/437.525
POLYITAN 1 07 Feb 23:00:44 23:03:47 19° 93° (E) 23:06:49 437.675
QB50P2 07 Feb 23:01:26 23:04:36 20° 93° (E) 23:07:44 145.880/145.840
50 SAT 07 Feb 23:01:35 23:05:16 74° 257° (WSW) 23:09:01 437.505
ANTELSAT 07 Feb 23:02:36 23:06:56 80° 103° (ESE) 23:11:19 437.575/2403.000
UKube-1 07 Feb 23:05:44 23:10:04 89° 96° (E) 23:14:27 .
CUBEBUG 1 07 Feb 23:06:00 23:10:27 79° 75° (ENE) 23:14:54 437.445
RS-15 07 Feb 23:06:12 23:16:32 35° 255° (WSW) 23:26:58 29.354- 29.394
TIGRISAT 07 Feb 23:10:22 23:14:42 89° 283° (WNW) 23:19:04 435.000
DX 1 07 Feb 23:13:23 23:17:44 65° 257° (WSW) 23:22:08 434.975-435.025
BUGSAT 1 07 Feb 23:18:12 23:20:19 14° 90° (E) 23:22:24 437.445
SPROUT 07 Feb 23:19:35 23:23:36 40° 70° (ENE) 23:27:38 437.525
POPSAT HIP 1 07 Feb 23:31:15 23:35:13 39° 98° (E) 23:39:09 437.405
NANOSAT C BR1 07 Feb 23:37:28 23:41:31 45° 99° (E) 23:45:32 145.865
TISAT 1 07 Feb 23:38:33 23:42:03 25° 66° (ENE) 23:45:32 437.305
DUCHIFAT 1 07 Feb 23:40:00 23:44:02 45° 99° (E) 23:48:03 145.980
QB50P1 07 Feb 23:44:02 23:48:11 55° 100° (E) 23:52:18 145.935-145.965
UNISAT 6 07 Feb 23:54:34 23:58:21 30° 292° (WNW) 00:02:10 437.425
ISS 07 Feb 23:57:32 00:00:16 25° 222° (SW) 00:02:59 145.825
VELOX 1 08 Feb 00:00:15 00:03:56 25° 265° (W) 00:07:38 145.980
SWISSCUBE 08 Feb 00:07:24 00:09:47 14° 58° (ENE) 00:12:09 437.505
AISAT 08 Feb 00:17:29 00:20:22 17° 269° (W) 00:23:15 437.250
Cosmos 2491 08 Feb 00:30:50 00:34:44 13° 51° (NE) 00:38:37 435.465 / 435.565
ESTCUBE 1 08 Feb 00:31:05 00:32:54 12° 272° (W) 00:34:43 437.505/2401.250
POLYITAN 1 08 Feb 00:35:50 00:39:47 40° 290° (WNW) 00:43:42 437.675
QB50P2 08 Feb 00:36:39 00:40:34 38° 290° (WNW) 00:44:28 145.880/145.840
ITUPSAT 1 08 Feb 00:41:11 00:45:01 25° 64° (ENE) 00:48:52 437.325
ANTELSAT 08 Feb 00:41:26 00:43:04 12° 300° (WNW) 00:44:42 437.575/2403.000
CUBEBUG 1 08 Feb 00:46:07 00:47:18 11° 272° (W) 00:48:29 437.445
Oscar 19 08 Feb 00:48:29 00:51:43 17° 90° (E) 00:54:57 437.125/150
JAS-2 08 Feb 00:49:56 00:52:08 12° 84° (E) 00:54:17 435.910
TIGRISAT 08 Feb 00:49:58 00:50:43 10° 301° (WNW) 00:51:29 435.000
BEESAT 08 Feb 00:50:53 00:55:00 30° 66° (ENE) 00:59:09 436.000
BEESAT 3 08 Feb 00:51:25 00:52:51 12° 32° (NNE) 00:54:17 437.485
BUGSAT 1 08 Feb 00:52:06 00:56:03 52° 288° (WNW) 00:59:57 437.445
SPROUT 08 Feb 00:56:31 00:59:44 20° 267° (W) 01:02:58 437.525
POPSAT HIP 1 08 Feb 01:07:39 01:10:47 21° 295° (WNW) 01:13:54 437.405
BEESAT 2 08 Feb 01:11:11 01:12:50 12° 32° (NNE) 01:14:27 435.950
TISAT 1 08 Feb 01:13:50 01:17:37 31° 263° (W) 01:21:25 437.305
NANOSAT C BR1 08 Feb 01:14:03 01:16:57 18° 296° (WNW) 01:19:51 145.865
DUCHIFAT 1 08 Feb 01:16:35 01:19:26 18° 296° (WNW) 01:22:17 145.980
QB50P1 08 Feb 01:21:02 01:23:33 16° 298° (WNW) 01:26:03 145.935-145.965
KKS-1 08 Feb 01:34:04 01:35:56 12° 59° (ENE) 01:37:48 437.445
SWISSCUBE 08 Feb 01:42:09 01:46:55 83° 255° (WSW) 01:51:44 437.505
CUSAT 1 08 Feb 01:48:30 01:55:59 49° 91° (E) 02:03:39 437.405
ITAMSAT 1 08 Feb 01:52:48 01:55:13 13° 88° (E) 01:57:36 435.822/435.867
DANDE 08 Feb 02:02:44 02:09:39 38° 87° (E) 02:17:15 436.750
ITUPSAT 1 08 Feb 02:18:08 02:22:38 42° 262° (W) 02:27:11 437.325
Cosmos 2491 08 Feb 02:25:11 02:33:49 59° 76° (ENE) 02:42:26 435.465 / 435.565
Oscar 19 08 Feb 02:26:25 02:31:32 66° 288° (WNW) 02:36:36 437.125/150
BEESAT 3 08 Feb 02:27:29 02:31:26 62° 53° (NE) 02:35:20 437.485
BEESAT 08 Feb 02:28:27 02:32:44 33° 263° (W) 02:37:03 436.000
PHONESAT 2.4 08 Feb 02:30:36 02:32:59 19° 159° (SSE) 02:35:23 2401.200-2431.200
JAS-2 08 Feb 02:32:24 02:38:19 89° 285° (WNW) 02:43:39 435.910
Gurwin Techsat 1B 08 Feb 02:38:46 02:44:05 64° 102° (ESE) 02:49:21 435.225
MOZHAYETS 4 08 Feb 02:45:18 02:48:57 24° 65° (ENE) 02:52:37
BEESAT 2 08 Feb 02:47:32 02:51:32 65° 53° (NE) 02:55:28 435.950
AIST 2 08 Feb 02:48:01 02:50:07 13° 33° (NNE) 02:52:11 435.215
STARS 08 Feb 02:56:45 03:00:55 43° 70° (ENE) 03:05:06 437.465
KKS-1 08 Feb 03:07:24 03:11:53 82° 257° (WSW) 03:16:22 437.445
YUBILEINY 08 Feb 03:18:09 03:26:26 50° 88° (E) 03:34:48 435.215
AO-7 08 Feb 03:26:25 03:33:38 31° 95° (E) 03:40:46 29.400- 29.500
ITAMSAT 1 08 Feb 03:30:04 03:35:21 85° 285° (WNW) 03:40:35 435.822/435.867
CUSAT 1 08 Feb 03:30:52 03:38:23 44° 290° (WNW) 03:46:00 437.405
DANDE 08 Feb 03:44:48 03:52:20 55° 288° (WNW) 04:00:41 436.750
M-CUBED/EXP-1 PRIME 08 Feb 03:52:58 03:54:33 13° 99° (E) 03:56:10 437.505
AUBIESAT-1 08 Feb 04:04:25 04:06:26 15° 99° (E) 04:08:30 437.475
BEESAT 3 08 Feb 04:06:41 04:08:42 14° 250° (WSW) 04:10:43 437.485
PHONESAT 2.4 08 Feb 04:06:46 04:09:49 35° 175° (S) 04:12:51 2401.200-2431.200
Oscar 19 08 Feb 04:09:10 04:09:52 10° 307° (NW) 04:10:35 437.125/150
JAS-2 08 Feb 04:19:14 04:22:25 15° 307° (NW) 04:25:26 435.910
Gurwin Techsat 1B 08 Feb 04:19:45 04:23:32 20° 300° (WNW) 04:27:20 435.225
MOZHAYETS 4 08 Feb 04:21:40 04:25:56 39° 263° (W) 04:30:14
Cosmos 2504 08 Feb 04:22:10 04:29:07 29° 80° (E) 04:36:16 435.465 / 435.565
Cosmos 2491 08 Feb 04:22:42 04:30:10 33° 277° (W) 04:37:38 435.465 / 435.565
HORYU 2 08 Feb 04:23:54 04:27:51 31° 96° (E) 04:31:48 437.375
AIST 2 08 Feb 04:25:12 04:29:22 72° 54° (NE) 04:33:28 435.215
BEESAT 2 08 Feb 04:26:59 04:28:55 13° 250° (WSW) 04:30:49 435.950
STARS 08 Feb 04:34:16 04:37:30 20° 267° (W) 04:40:44 437.465
CUBESAT XI-V 08 Feb 04:55:50 05:00:23 53° 72° (ENE) 05:04:59 437.345
ITAMSAT 1 08 Feb 05:11:30 05:14:02 14° 304° (NW) 05:16:33 435.822/435.867
YUBILEINY 08 Feb 05:15:15 05:23:24 41° 290° (WNW) 05:31:39 435.215
AO-7 08 Feb 05:18:42 05:26:55 64° 295° (WNW) 05:35:04 29.400- 29.500
CUSAT 1 08 Feb 05:21:16 05:22:51 11° 311° (NW) 05:24:26 437.405
M-CUBED/EXP-1 PRIME 08 Feb 05:26:15 05:29:24 40° 293° (WNW) 05:32:40 437.505
DANDE 08 Feb 05:33:16 05:37:24 14° 310° (NW) 05:41:39 436.750
AUBIESAT-1 08 Feb 05:38:02 05:41:10 36° 294° (WNW) 05:44:24 437.475
PHONESAT 2.4 08 Feb 05:43:50 05:46:44 29° 192° (SSW) 05:49:36 2401.200-2431.200
SO-50 08 Feb 05:53:23 05:58:13 62° 121° (ESE) 06:03:08 436.795
HORYU 2 08 Feb 06:00:33 06:04:21 28° 294° (WNW) 06:08:09 437.375
AIST 2 08 Feb 06:05:31 06:07:17 13° 251° (WSW) 06:09:04 435.215
Cosmos 2504 08 Feb 06:13:11 06:21:43 70° 282° (WNW) 06:30:39 435.465 / 435.565
STRAND 1 08 Feb 06:21:49 06:26:48 56° 71° (ENE) 06:31:50 437.568
BRITE-PL 08 Feb 06:24:39 06:28:25 22° 91° (E) 06:31:57 437.365/2234.400
CUTE-I 08 Feb 06:31:33 06:36:46 48° 100° (E) 06:41:56 437.470
CUBESAT XI-V 08 Feb 06:34:54 06:38:07 18° 269° (W) 06:41:20 437.345
Cubesat XI-IV 08 Feb 06:44:31 06:49:52 62° 102° (ESE) 06:55:12 437.490
LilacSat-2 08 Feb 07:02:17 07:06:05 84° 284° (WNW) 07:09:52 437.200
AO-7 08 Feb 07:13:09 07:18:08 18° 317° (NW) 07:23:07 29.400- 29.500
PHONESAT 2.4 08 Feb 07:22:20 07:23:24 11° 208° (SSW) 07:24:26 2401.200-2431.200
PRISM 08 Feb 07:26:45 07:30:55 79° 74° (ENE) 07:35:06 437.425
DOVE 4 08 Feb 07:32:36 07:36:12 25° 94° (E) 07:39:41 437.250
SO-50 08 Feb 07:35:00 07:39:07 25° 321° (NW) 07:43:15 436.795
GOMX 1 08 Feb 07:40:39 07:45:11 62° 101° (E) 07:49:24 467.674
HO-68 08 Feb 07:50:55 07:56:53 27° 93° (E) 08:02:48 435.675
CUTE 1.7 + AOD 2 08 Feb 07:56:35 07:59:46 20° 92° (E) 08:02:56 437.475
COMPASS 1 08 Feb 07:57:40 07:58:59 11° 88° (E) 08:00:18 437.405
BRITE-PL 08 Feb 08:02:32 08:07:10 42° 291° (WNW) 08:11:26 437.365/2234.400
STRAND 1 08 Feb 08:02:40 08:06:20 20° 268° (W) 08:10:03 437.568
SEEDS 08 Feb 08:06:38 08:09:44 19° 92° (E) 08:12:50 437.485
Cosmos 2504 08 Feb 08:11:40 08:16:59 17° 305° (NW) 08:22:25 435.465 / 435.565
CUTE-I 08 Feb 08:12:08 08:16:32 26° 297° (WNW) 08:20:56 437.470
Cubesat XI-IV 08 Feb 08:25:33 08:29:30 21° 300° (WNW) 08:33:26 437.490
AAUSAT CUBESAT 2 08 Feb 08:26:50 08:29:54 19° 92° (E) 08:32:58 437.432
ANTELSAT 08 Feb 08:30:54 08:31:34 10° 59° (ENE) 08:32:13 437.575/2403.000
TIGRISAT 08 Feb 08:37:34 08:39:05 12° 60° (ENE) 08:40:36 435.000
CANX-2 08 Feb 08:40:31 08:44:47 66° 101° (E) 08:49:04 2200.000
CINEMA 3 08 Feb 08:41:29 08:45:31 47° 99° (E) 08:49:32 145.822/145.860
O/OREOS (USA 219) 08 Feb 08:42:04 08:46:28 62° 111° (ESE) 08:50:56 437.305
GONETS M04 08 Feb 08:43:22 08:51:13 40° 86° (E) 08:59:06
CUBEBUG 2 08 Feb 09:02:05 09:05:45 29° 96° (E) 09:09:26 437.445
UWE-3 08 Feb 09:07:15 09:10:41 24° 95° (E) 09:14:09 435.000/436.395/437.385
DOVE 4 08 Feb 09:10:11 09:13:58 30° 292° (WNW) 09:17:36 437.250
Oscar 11 08 Feb 09:15:43 09:19:28 28° 95° (E) 09:23:12 145.826/435.025
UNISAT 6 08 Feb 09:18:50 09:22:37 31° 68° (ENE) 09:26:24 437.425
GOMX 1 08 Feb 09:20:08 09:22:42 15° 300° (WNW) 09:25:12 467.674
Cosmos 2499 08 Feb 09:28:16 09:35:53 35° 84° (E) 09:43:39 435.465 / 435.565
COMPASS 1 08 Feb 09:30:50 09:35:02 71° 286° (WNW) 09:39:15 437.405
CUTE 1.7 + AOD 2 08 Feb 09:31:46 09:35:47 40° 289° (WNW) 09:39:47 437.475
HO-68 08 Feb 09:37:58 09:45:05 64° 292° (WNW) 09:52:09 435.675
SEEDS 08 Feb 09:41:37 09:45:38 41° 289° (WNW) 09:49:37 437.485
POLYITAN 1 08 Feb 09:55:35 09:58:41 20° 64° (ENE) 10:01:46 437.675
DELFI C3 08 Feb 09:55:43 09:59:32 40° 98° (E) 10:03:21 145.870
QB50P2 08 Feb 09:56:14 09:59:25 21° 65° (ENE) 10:02:36 145.880/145.840
AAUSAT CUBESAT 2 08 Feb 10:01:38 10:05:34 40° 289° (WNW) 10:09:30 437.432
ANTELSAT 08 Feb 10:03:17 10:07:37 89° 64° (ENE) 10:11:55 437.575/2403.000
ZACube-1 08 Feb 10:05:18 10:09:31 73° 103° (ESE) 10:13:46 437.345
BUGSAT 1 08 Feb 10:10:11 10:12:30 15° 62° (ENE) 10:14:49 437.445
TIGRISAT 08 Feb 10:10:51 10:15:12 80° 257° (WSW) 10:19:29 435.000
FUNcube-1 08 Feb 10:15:25 10:19:37 89° 109° (ESE) 10:23:53 145.935
CANX-2 08 Feb 10:17:55 10:20:09 14° 298° (WNW) 10:22:22 2200.000
CINEMA 3 08 Feb 10:19:39 10:22:20 17° 297° (WNW) 10:25:01 145.822/145.860
O/OREOS (USA 219) 08 Feb 10:23:17 10:26:19 18° 310° (NW) 10:29:23 437.305
POPSAT HIP 1 08 Feb 10:25:35 10:29:31 38° 70° (ENE) 10:33:28 437.405
